DW2822 Weather Reports


time (UTC)temp
F
wind
direction
speed
knots
gust
knots
rain 1hr
in
rain 24hr
in
rain mn
in
humidity
%
barometer
mb
20260508024526 50 195 0.9 3.5 0.00 0.00 0.00 70 1015.1
20260508023014 50 125 0.9 1.7 0.00 0.00 0.00 70 1015.0
20260508021505 50 117 0.0 1.7 0.00 0.00 0.00 69 1014.9
20260508020103 50 117 0.0 2.6 0.00 0.00 0.00 69 1014.9
20260508014552 50 112 0.9 2.6 0.00 0.00 0.00 69 1014.9
20260508013042 51 95 0.9 2.6 0.00 0.00 0.00 69 1014.9
20260508011540 51 140 0.0 2.6 0.00 0.00 0.00 69 1015.1
20260508010027 51 162 1.7 3.5 0.00 0.00 0.00 69 1015.1
20260508004524 51 160 2.6 5.2 0.00 0.00 0.00 69 1015.1
20260508003058 51 161 0.9 3.5 0.00 0.00 0.00 70 1015.2
20260508001557 51 133 0.9 3.5 0.00 0.00 0.00 70 1015.2
20260508000028 51 168 1.7 3.5 0.00 0.00 0.00 70 1015.2
20260507234516 51 160 1.7 4.3 0.00 0.00 0.00 70 1015.3
20260507233010 52 159 1.7 3.5 0.00 0.00 0.00 70 1015.3
20260507231519 52 147 0.9 1.7 0.00 0.00 0.00 70 1015.3
20260507230050 52 103 0.9 2.6 0.00 0.00 0.00 70 1015.3
20260507224546 52 105 0.9 2.6 0.00 0.00 0.00 70 1015.4
20260507223036 52 106 1.7 2.6 0.00 0.00 0.00 70 1015.3
20260507221535 52 108 0.9 3.5 0.00 0.00 0.00 69 1015.4
20260507220018 52 162 0.9 2.6 0.00 0.00 0.00 69 1015.4
20260507214504 52 165 1.7 4.3 0.00 0.00 0.00 69 1015.4
20260507213102 52 162 2.6 4.3 0.00 0.00 0.00 69 1015.3
20260507211607 52 172 1.7 4.3 0.00 0.00 0.00 69 1015.2
20260507210038 53 150 0.0 0.0 0.00 0.00 0.00 69 1015.1
20260507204540 53 141 0.9 3.5 0.00 0.00 0.00 68 1015.0
20260507203034 53 156 2.6 5.2 0.00 0.00 0.00 68 1015.0
20260507201518 53 175 2.6 4.3 0.00 0.00 0.00 68 1014.9
20260507200056 53 169 2.6 4.3 0.00 0.00 0.00 69 1014.8
20260507194602 53 185 1.7 3.5 0.00 0.00 0.00 69 1014.6
20260507193056 53 160 1.7 4.3 0.00 0.00 0.00 69 1014.6
20260507191501 53 179 1.7 5.2 0.00 0.00 0.00 69 1014.6
20260507190040 53 165 1.7 6.1 0.00 0.00 0.00 69 1014.6
20260507184541 54 172 3.5 5.2 0.00 0.00 0.00 69 1014.5
20260507183043 54 160 1.7 4.3 0.00 0.00 0.00 69 1014.5
20260507181531 54 98 1.7 4.3 0.00 0.00 0.00 69 1014.4
20260507180103 54 151 4.3 8.7 0.00 0.00 0.00 68 1014.3
20260507174613 54 156 1.7 5.2 0.00 0.00 0.00 67 1014.3
20260507173054 54 155 0.9 3.5 0.00 0.00 0.00 67 1014.3
20260507171610 54 110 0.9 4.3 0.00 0.00 0.00 67 1014.4
20260507170030 54 110 1.7 3.5 0.00 0.00 0.00 68 1014.4
20260507164524 54 162 4.3 7.0 0.00 0.00 0.00 68 1014.5
20260507163009 54 158 3.5 7.8 0.00 0.00 0.00 69 1014.4
20260507161519 54 212 5.2 8.7 0.00 0.00 0.00 68 1014.5
20260507160049 54 161 5.2 8.7 0.00 0.00 0.00 68 1014.5
20260507154543 54 156 4.3 7.0 0.00 0.00 0.00 66 1014.5
20260507153035 54 198 3.5 7.0 0.00 0.00 0.00 66 1014.5
20260507151534 55 191 3.5 6.1 0.00 0.00 0.00 65 1014.5
20260507150005 55 146 1.7 6.1 0.00 0.00 0.00 65 1014.5
20260507144503 55 166 2.6 5.2 0.00 0.00 0.00 64 1014.6
20260507143054 55 148 2.6 4.3 0.00 0.00 0.00 64 1014.7
20260507141553 55 154 2.6 7.0 0.00 0.00 0.00 64 1014.7
20260507140033 55 169 1.7 6.1 0.00 0.00 0.00 65 1014.8
20260507134535 55 176 2.6 6.1 0.00 0.00 0.00 65 1014.8
20260507133021 55 177 3.5 6.1 0.00 0.00 0.00 65 1014.9
20260507131521 55 98 0.9 3.5 0.00 0.00 0.00 65 1014.9
20260507124556 56 112 2.6 7.8 0.00 0.00 0.00 66 1014.9
20260507123037 56 71 5.2 7.8 0.00 0.00 0.00 66 1014.9
20260507121537 56 110 3.5 7.8 0.00 0.00 0.00 66 1014.9
20260507120001 57 104 5.2 8.7 0.00 0.00 0.00 67 1015.1
20260507114505 56 56 6.1 10.4 0.00 0.00 0.00 69 1015.2
20260507113058 55 84 2.6 7.0 0.00 0.00 0.00 73 1015.2
20260507111555 54 78 4.3 8.7 0.00 0.00 0.00 74 1015.2
20260507110036 53 68 5.2 8.7 0.00 0.00 0.00 75 1015.4
20260507104531 52 59 3.5 8.7 0.00 0.00 0.00 77 1015.5
20260507103025 51 78 3.5 7.0 0.00 0.00 0.00 78 1015.5
20260507101523 50 103 2.6 6.1 0.00 0.00 0.00 80 1015.6
20260507100048 48 86 3.5 6.1 0.00 0.00 0.00 80 1015.6
20260507094547 47 73 2.6 6.1 0.00 0.00 0.00 79 1015.6
20260507093043 47 120 1.7 5.2 0.00 0.00 0.00 78 1015.7
20260507091543 46 115 1.7 5.2 0.00 0.00 0.00 78 1015.6
20260507090010 46 85 3.5 5.2 0.00 0.00 0.00 78 1015.6
20260507084510 46 71 2.6 5.2 0.00 0.00 0.00 77 1015.6
20260507083003 45 98 1.7 4.3 0.00 0.00 0.00 77 1015.7
20260507081503 45 84 2.6 4.3 0.00 0.00 0.00 77 1015.5
20260507080042 45 83 2.6 7.0 0.00 0.00 0.00 77 1015.5
20260507074601 45 60 1.7 4.3 0.00 0.00 0.00 77 1015.5
20260507073042 45 85 2.6 4.3 0.00 0.00 0.00 77 1015.5
20260507071536 45 73 2.6 4.3 0.00 0.00 0.00 78 1015.4
20260507070115 45 85 2.6 3.5 0.00 0.00 0.00 77 1015.3
20260507064610 45 65 1.7 3.5 0.00 0.00 0.00 77 1015.1
20260507063057 45 73 2.6 4.3 0.00 0.00 0.00 77 1015.1
20260507061549 45 73 1.7 3.5 0.00 0.00 0.00 77 1015.1
20260507060043 45 66 1.7 3.5 0.00 0.00 0.00 77 1015.1
20260507054528 45 82 1.7 3.5 0.00 0.00 0.00 76 1015.0
20260507053007 45 82 1.7 3.5 0.00 0.00 0.00 76 1014.9
20260507051505 45 81 1.7 3.5 0.00 0.00 0.00 76 1014.9
20260507050040 45 63 1.7 3.5 0.00 0.00 0.00 76 1014.9
20260507044542 45 62 1.7 3.5 0.00 0.00 0.00 76 1014.8
20260507043031 45 61 0.9 2.6 0.00 0.00 0.00 76 1014.8
20260507041533 45 76 1.7 3.5 0.00 0.00 0.00 76 1014.7
20260507040113 45 55 1.7 4.3 0.00 0.00 0.00 76 1014.7
20260507034616 45 39 3.5 4.3 0.00 0.00 0.00 76 1014.7
20260507033104 45 46 2.6 5.2 0.00 0.00 0.00 76 1014.8
20260507031618 45 48 3.5 6.1 0.00 0.00 0.00 76 1014.9
20260507030031 45 44 2.6 5.2 0.00 0.00 0.00 76 1014.8